Location: B�rgermoos
(47.6500°N, 9.0667°E)
Time: 08:58:38
(UTC+00:00)

A-11 Canister half - Pass Details

Date: 06 August 2021
Orbit: 1526 x 1683 km, 47.3° (Epoch: 20 September)

Event Time Altitude Azimuth Distance (km) Brightness Sun altitude
Rises 08:19:32 0° 209° (SSW) 4,908 11.6 40.3°
Reaches altitude 10° 08:22:58 10° 201° (SSW) 3,931 11.3 40.8°
Maximum altitude 08:31:57 38° 138° (SE) 2,379 11.8 42.2°
Drops below altitude 10° 08:40:54 10° 76° (ENE) 3,927 11.8 43.6°
Sets 08:44:19 0° 69° (ENE) 4,902 12.1 44.1°
